Regional Weather Roundup
Issued by NWS

Home | Current Version | Previous Version | Text Only | Print | Product List | Glossary Off
Versions: 1 2 3 4 5 6 7 8 9 10 11 12 13 14 15 16 17 18 19 20 21 22 23 24 25 26 27 28 29 30 31 32 33 34 35 36 37 38 39 40 41 42 43 44 45 46 47 48 49 50

865
ASUS45 KSLC 181710
RWRUT

UTAH REGIONAL WEATHER ROUNDUP
NATIONAL WEATHER SERVICE SALT LAKE CITY UT
1000 AM MST WED JAN 18 2017

UTZ001>011-023>025-181800-

NORTHERN UTAH

CITY           SKY/WX    TMP DP  RH WIND       PRES   REMARKS
BRIGHAM CITY     N/A     11   7  83 CALM      30.19R
DUGWAY         LGT SNOW  21  20  97 NE1       30.17S VSB 3/4
HILL AFB       MOSUNNY   19  10  70 SE8       30.13F WCI   8
LOGAN          SUNNY      3   0  87 N5        30.17F FOG     WCI  -6
OGDEN          MOSUNNY   20  12  71 S8        30.14F WCI  10
SALT LAKE CITY MOSUNNY   24  19  81 SE7       30.15F HAZE    WCI  16
TOOELE VALLEY  MOSUNNY   23  21  93 SW5       30.16F FOG     WCI  17
WENDOVER       CLOUDY    21  18  86 CALM      30.16S
HEBER CITY     SUNNY     10   9  92 CALM      30.14R
WEST JORDAN    MOSUNNY   24  23  96 SE3       30.14F

$$

UTZ011>015-024>027-181800-

CENTRAL/NORTHEAST UTAH

CITY           SKY/WX    TMP DP  RH WIND       PRES   REMARKS
PROVO AIRPORT  SUNNY    N/A N/A N/A CALM      30.18S
MOAB/CANYONLAN SUNNY     30  25  81 NW9       30.16S WCI  22
DELTA          SUNNY     27  21  80 MISG      30.14F
PRICE          MOSUNNY   21   8  57 CALM      30.12S
ROOSEVELT      LGT SNOW  16  10  79 SW6       30.27S WCI   7
VERNAL         LGT SNOW  15  11  83 N5        30.24S FOG     WCI   8

$$

UTZ013>016-019>022-027-181800-

SOUTHERN UTAH

CITY           SKY/WX    TMP DP  RH WIND       PRES   REMARKS
BRYCE CANYON   SUNNY      7   4  87 CALM      30.12S
CEDAR CITY     SUNNY     27  22  81 CALM      30.11S
MILFORD        SUNNY     29  24  82 S9        30.11F WCI  20
ST GEORGE      SUNNY     36  27  69 S3        30.20S
HANKSVILLE     MOSUNNY   30  27  86 MISG      30.20S
BLANDING       MOSUNNY   33  31  90 CALM      30.22R

$$

REGIONAL REPORTS     COLORADO/ARIZONA

CITY           SKY/WX    TMP DP  RH WIND       PRES   REMARKS
CRAIG, CO      CLOUDY     5   3  91 CALM      30.17R FOG
GRAND JUNCTION MOSUNNY   34  28  79 CALM      30.16R
RIFLE, CO      CLOUDY    31  24  75 CALM      30.16S
MONTROSE, CO   SUNNY     35  23  61 CALM      30.16R
CORTEZ, CO     SUNNY     35  27  72 NE3       30.15R
COLORADO CITY    N/A     36  32  87 CALM      30.18S
PAGE, AZ       SUNNY     37  25  61 N3        30.16R
GRAND CANYON   SUNNY     35  31  85 S3        30.16S
KINGMAN, AZ    SUNNY     43  25  49 S3        30.16R
FLAGSTAFF, AZ  SUNNY     34  30  85 SW7       30.17R WCI  28

$$

REGIONAL REPORTS    NEVADA/IDAHO/WYOMING

CITY           SKY/WX    TMP DP  RH WIND       PRES   REMARKS
LAS VEGAS, NV  MOSUNNY   45  23  42 CALM      30.15R
ELY, NY        MOSUNNY   19   8  62 SE9       30.08F WCI   8
ELKO, NV       CLOUDY    12   4  70 E7        30.08F WCI   1
POCATELLO, ID  CLOUDY    15   9  76 N6        30.08R WCI   6
BURLEY, ID     MOSUNNY   21  12  68 VRB6      30.01R WCI  13
FORT BRIDGER,    N/A      8   2  75 CALM      30.08S
EVANSTON, WY   CLOUDY    17   7  64 S6        30.06S WCI   9
ROCK SPRINGS,  CLOUDY    -1  -3  91 CALM      30.07S

$$




USA.gov is the U.S. government's official web portal to all federal, state and local government web resources and services.